WetterOnline ( https://www.wetteronline.de )

Wetter aktuell Vnà

Aktuelles Wetter: Reschenpass (1461m)

6-stündlich | Neueste Meldungen
Ortszeit Temperatur Wetter
Fr, 25.09. 2:00 11.0° C leichter Regen
Do, 24.09. 20:00 13.4° C bedeckt
Do, 24.09. 14:00 13.0° C bedeckt
Do, 24.09. 8:00 12.4° C bedeckt
Do, 24.09. 2:00 14.0° C bedeckt
Mi, 23.09. 20:00 13.8° C leichter Regen
Mi, 23.09. 14:00 15.2° C leichter Regen
Mi, 23.09. 8:00 12.4° C bedeckt
Ortszeit Temperatur Wetter
Fr, 25.09. 4:00 10.8° C bedeckt
Fr, 25.09. 3:55 11° C bedeckt
Fr, 25.09. 3:00 11.0° C leichter Regen
Fr, 25.09. 2:00 11.0° C leichter Regen
Fr, 25.09. 1:55 11° C leichter Regen
Fr, 25.09. 1:00 12.2° C leichter Regen
Fr, 25.09. 0:55 12° C leichter Regen
Fr, 25.09. 0:00 12.2° C leichter Regen
Ortszeit Relative Feuchte Sichtweite
Fr, 25.09. 2:00 95% 5.0 km
Do, 24.09. 20:00 100% 6 km
Do, 24.09. 14:00 85% 12 km
Do, 24.09. 8:00 95% 8 km
Do, 24.09. 2:00 98% 8 km
Mi, 23.09. 20:00 96% 10 km
Mi, 23.09. 14:00 67% 10 km
Mi, 23.09. 8:00 98% 5.0 km
Ortszeit Relative Feuchte Sichtweite
Fr, 25.09. 4:00 95% 5.0 km
Fr, 25.09. 3:55 94% 5.0 km
Fr, 25.09. 3:00 96% 5.0 km
Fr, 25.09. 2:00 95% 5.0 km
Fr, 25.09. 1:55 94% 5.0 km
Fr, 25.09. 1:00 100% 5.0 km
Fr, 25.09. 0:55 100% 5.0 km
Fr, 25.09. 0:00 100% 5.0 km
Ortszeit Niederschlagsmenge Niederschlagsart
Fr, 25.09. 2:00 8 l/m2 in 6 Std. Regen
Do, 24.09. 20:00 1 l/m2 in 12 Std. Regen
Do, 24.09. 14:00 0.0 l/m2 in 6 Std. -
Do, 24.09. 8:00 0.6 l/m2 in 12 Std. -
Do, 24.09. 2:00 0.6 l/m2 in 6 Std. Regen
Mi, 23.09. 20:00 0.9 l/m2 in 12 Std. Regen
Mi, 23.09. 14:00 0.1 l/m2 in 6 Std. Regen
Mi, 23.09. 8:00 3 l/m2 in 12 Std. -
Ortszeit Niederschlagsmenge Niederschlagsart
Fr, 25.09. 4:00 keine Meldung -
Fr, 25.09. 3:55 keine Meldung -
Fr, 25.09. 3:00 keine Meldung -
Fr, 25.09. 2:00 keine Meldung -
Fr, 25.09. 1:55 keine Meldung -
Fr, 25.09. 1:00 keine Meldung -
Fr, 25.09. 0:55 keine Meldung -
Fr, 25.09. 0:00 keine Meldung -
Ortszeit Stärke Spitze Richtung
km/h Bft. km/h Grad Sektor
Fr, 25.09. 2:00 4 1 - 110° O
Do, 24.09. 20:00 13 3 - 200° S
Do, 24.09. 14:00 13 3 - 150° SO
Do, 24.09. 8:00 0 0 - - -
Do, 24.09. 2:00 4 1 - 200° S
Mi, 23.09. 20:00 6 1 - 170° S
Mi, 23.09. 14:00 6 1 - 10° N
Mi, 23.09. 8:00 4 1 - 170° S
Ortszeit Stärke Spitze Richtung
km/h Bft. km/h Grad Sektor
Fr, 25.09. 4:00 4 1 - 10° N
Fr, 25.09. 3:55 4 1 - 10° N
Fr, 25.09. 3:00 4 1 - 90° O
Fr, 25.09. 2:00 4 1 - 110° O
Fr, 25.09. 1:55 4 1 - 110° O
Fr, 25.09. 1:00 11 2 - 170° S
Fr, 25.09. 0:55 11 2 - 170° S
Fr, 25.09. 0:00 15 3 - 140° SO
Ortszeit Untergrenze Bedeckung Gattung
total tief tief mittel hoch
Fr, 25.09. 2:00 210 m 8/8 8/8 St - -
Do, 24.09. 20:00 210 m 8/8 8/8 Sc - -
Do, 24.09. 14:00 300 m 8/8 8/8 St - -
Do, 24.09. 8:00 270 m 8/8 8/8 St - -
Do, 24.09. 2:00 360 m 8/8 8/8 St - -
Mi, 23.09. 20:00 300 m 8/8 8/8 St - -
Mi, 23.09. 14:00 600 m 8/8 8/8 Cu - -
Mi, 23.09. 8:00 240 m 8/8 8/8 St - -
Ortszeit Bedeckungsgrad in Achtel und Wolkenuntergrenze
Fr, 25.09. 4:00 8(210m)
Fr, 25.09. 3:55 8(210m)
Fr, 25.09. 3:00 8(210m)
Fr, 25.09. 2:00 8(210m)
Fr, 25.09. 1:55 8(210m)
Fr, 25.09. 1:00 3(210m) 5(600m)
Fr, 25.09. 0:55 3-4(210m) 5-7(600m)
Fr, 25.09. 0:00 2(180m) 6(750m)
Ortszeit Stationsdruck (hPa) Tendenz (hPa in 3 Std.)
Fr, 25.09. 2:00 843 - 2,1
Do, 24.09. 20:00 846 - 1,6
Do, 24.09. 14:00 848 0,0
Do, 24.09. 8:00 848 0,0
Do, 24.09. 2:00 848 + 0,2
Mi, 23.09. 20:00 847 0,0
Mi, 23.09. 14:00 847 - 0,8
Mi, 23.09. 8:00 848 - 0,6
Ortszeit Stationsdruck (hPa) Tendenz (hPa in 3 Std.)
Fr, 25.09. 4:00 840 - 3,3
Fr, 25.09. 3:55 - keine Meldung
Fr, 25.09. 3:00 841 - 2,8
Fr, 25.09. 2:00 843 - 2,1
Fr, 25.09. 1:55 - keine Meldung
Fr, 25.09. 1:00 844 - 1,9
Fr, 25.09. 0:55 - keine Meldung
Fr, 25.09. 0:00 844 - 1,9
Ortszeit Schneehöhe (cm)
Fr, 25.09. 2:00 -
Do, 24.09. 20:00 -
Do, 24.09. 14:00 -
Do, 24.09. 8:00 0
Do, 24.09. 2:00 -
Mi, 23.09. 20:00 -
Mi, 23.09. 14:00 -
Mi, 23.09. 8:00 -
Ortszeit Schneehöhe (cm)
Fr, 25.09. 4:00 -
Fr, 25.09. 3:55 -
Fr, 25.09. 3:00 -
Fr, 25.09. 2:00 -
Fr, 25.09. 1:55 -
Fr, 25.09. 1:00 -
Fr, 25.09. 0:55 -
Fr, 25.09. 0:00 -
Link zu dieser Seite / Seite empfehlen

Das Wetter in ...